星链-32751 (STARLINK-32751)

导读 | 豆包AI

STARLINK-32751是美国太空探索技术公司(SpaceX)星链互联网卫星星座中的一颗卫星,于2025年1月21日由美国发射升空。星链项目旨在构建全球卫星互联网,为全球用户提供高速低延迟宽带服务,这颗卫星加入星座后,进一步拓展了星链网络的全球覆盖能力。

基本信息
目录编号:
62753
目录名称:
STARLINK-32751
国际标识:
2025-014U
轨道中心:
EARTH
卫星名称:
星链-32751
卫星全名:
星链-32751 (STARLINK-32751)
卫星状态:
在轨 (已飞行418 天)
发射日期:
2025-01-21 UTC
国别 :
美国 (US)
星等 :
--
轨道信息
数据来源 国际轨道数据 AOE轨道数据
星历时间 2026-03-15T04:30:43+0800
8小时前
查看轨道信息
2026-03-13T08:00:00+0800
2天前
查看轨道信息
半长轴 6861.184km 6861.22km
偏心率 0.0000296 0.0001805
轨道倾角 43.002° 43.005°
近地点辐角 283.903° 279.766°
升交点赤经 125.536° 136.015°
平近点角 76.179° 309.007°
近地点 482.843km 481.844km
远地点 483.251km 484.322km
周期 94.267分钟 94.267分钟
每日圈数 15.275809 15.275689
详细信息
固有亮度:
5
最大亮度:
2.5
卫星平台:
Starlink V1.0
覆盖范围:
全球
运营商:
太空探索技术公司
运营商所在国:
美国
制造商(研发单位):
太空探索技术公司
制造商所在国:
美国
使用方式:
暂无
卫星简介
Starlink 计划是 SpaceX 推出的全球卫星互联网项目,通过发射低轨道卫星,为全球尤其是偏远地区提供高速、低延迟的互联网服务。自 2019 年起,Starlink 已部署数千颗卫星,旨在缩小全球数字鸿沟,推动互联网普及。该项目还为军事、航空等行业提供通信支持,带来广泛经济效益。
2D轨道图
3D轨道图
轨道高度分析图
轨道倾角分析图
轨道综合分析图
查看轨道综合分析图